| time (UTC) | temp C | wind direction | speed KPH | gust KPH | rain 1hr cm | rain 24hr cm | rain mn cm | humidity % | barometer mb |
| 20260510234537 | 20 | 76 | 1.6 | 12.9 | 0.00 | 0.00 | 0.00 | 30 | 1024.9 |
| 20260510234030 | 20 | 163 | 6.4 | 12.9 | 0.00 | 0.00 | 0.00 | 30 | 1024.8 |
| 20260510233522 | 20 | 107 | 1.6 | 12.9 | 0.00 | 0.00 | 0.00 | 30 | 1024.9 |
| 20260510233017 | 20 | 324 | 3.2 | 11.3 | 0.00 | 0.00 | 0.00 | 29 | 1024.8 |
| 20260510232515 | 20 | 345 | 3.2 | 11.3 | 0.00 | 0.00 | 0.00 | 30 | 1024.9 |
| 20260510232028 | 20 | 107 | 3.2 | 6.4 | 0.00 | 0.00 | 0.00 | 30 | 1024.9 |
| 20260510231522 | 20 | 348 | 3.2 | 8.0 | 0.00 | 0.00 | 0.00 | 30 | 1024.8 |
| 20260510231015 | 20 | 257 | 3.2 | 11.3 | 0.00 | 0.00 | 0.00 | 30 | 1024.8 |
| 20260510230526 | 20 | 162 | 3.2 | 14.5 | 0.00 | 0.00 | 0.00 | 30 | 1024.7 |
| 20260510230017 | 20 | 188 | 4.8 | 14.5 | 0.00 | 0.00 | 0.00 | 29 | 1024.8 |
| 20260510225531 | 21 | 282 | 4.8 | 14.5 | 0.00 | 0.00 | 0.00 | 29 | 1024.7 |
| 20260510225023 | 21 | 26 | 3.2 | 14.5 | 0.00 | 0.00 | 0.00 | 29 | 1024.6 |
| 20260510224516 | 21 | 86 | 3.2 | 19.3 | 0.00 | 0.00 | 0.00 | 30 | 1024.5 |
| 20260510224049 | 21 | 158 | 4.8 | 19.3 | 0.00 | 0.00 | 0.00 | 29 | 1024.5 |
| 20260510223520 | 21 | 323 | 6.4 | 9.7 | 0.00 | 0.00 | 0.00 | 29 | 1024.5 |
| 20260510223038 | 21 | 186 | 3.2 | 8.0 | 0.00 | 0.00 | 0.00 | 29 | 1024.3 |
| 20260510222509 | 21 | 125 | 3.2 | 8.0 | 0.00 | 0.00 | 0.00 | 29 | 1024.6 |
| 20260510222022 | 21 | 223 | 3.2 | 12.9 | 0.00 | 0.00 | 0.00 | 29 | 1024.6 |
| 20260510221517 | 21 | 349 | 3.2 | 12.9 | 0.00 | 0.00 | 0.00 | 29 | 1024.6 |
| 20260510221029 | 21 | 288 | 3.2 | 6.4 | 0.00 | 0.00 | 0.00 | 29 | 1024.5 |
| 20260510220523 | 21 | 310 | 3.2 | 12.9 | 0.00 | 0.00 | 0.00 | 28 | 1024.4 |
| 20260510220016 | 21 | 346 | 4.8 | 12.9 | 0.00 | 0.00 | 0.00 | 28 | 1024.5 |
| 20260510215529 | 21 | 301 | 3.2 | 11.3 | 0.00 | 0.00 | 0.00 | 28 | 1024.4 |
| 20260510215026 | 21 | 134 | 4.8 | 11.3 | 0.00 | 0.00 | 0.00 | 28 | 1024.4 |
| 20260510214520 | 21 | 134 | 4.8 | 11.3 | 0.00 | 0.00 | 0.00 | 27 | 1024.3 |
| 20260510214014 | 21 | 169 | 3.2 | 8.0 | 0.00 | 0.00 | 0.00 | 28 | 1024.3 |
| 20260510213549 | 20 | 20 | 1.6 | 11.3 | 0.00 | 0.00 | 0.00 | 28 | 1024.3 |
| 20260510213021 | 20 | 142 | 3.2 | 11.3 | 0.00 | 0.00 | 0.00 | 29 | 1024.3 |
| 20260510212534 | 20 | 218 | 4.8 | 11.3 | 0.00 | 0.00 | 0.00 | 29 | 1024.3 |
| 20260510212027 | 20 | 18 | 4.8 | 8.0 | 0.00 | 0.00 | 0.00 | 29 | 1024.2 |
| 20260510211542 | 20 | 42 | 3.2 | 12.9 | 0.00 | 0.00 | 0.00 | 28 | 1024.2 |
| 20260510211035 | 20 | 146 | 4.8 | 16.1 | 0.00 | 0.00 | 0.00 | 28 | 1024.1 |
| 20260510210527 | 20 | 144 | 6.4 | 16.1 | 0.00 | 0.00 | 0.00 | 28 | 1024.2 |
| 20260510210022 | 21 | 111 | 3.2 | 9.7 | 0.00 | 0.00 | 0.00 | 26 | 1024.0 |
| 20260510205519 | 21 | 78 | 3.2 | 8.0 | 0.00 | 0.00 | 0.00 | 23 | 1023.9 |
| 20260510205012 | 21 | 31 | 4.8 | 8.0 | 0.00 | 0.00 | 0.00 | 22 | 1023.9 |
| 20260510204527 | 21 | 97 | 3.2 | 12.9 | 0.00 | 0.00 | 0.00 | 22 | 1023.9 |
| 20260510204020 | 21 | 105 | 4.8 | 14.5 | 0.00 | 0.00 | 0.00 | 23 | 1023.9 |
| 20260510203514 | 21 | 154 | 3.2 | 14.5 | 0.00 | 0.00 | 0.00 | 22 | 1023.9 |
| 20260510203028 | 21 | 75 | 3.2 | 14.5 | 0.00 | 0.00 | 0.00 | 22 | 1024.0 |
| 20260510202542 | 21 | 123 | 4.8 | 11.3 | 0.00 | 0.00 | 0.00 | 18 | 1023.9 |
| 20260510202014 | 21 | 156 | 3.2 | 11.3 | 0.00 | 0.00 | 0.00 | 19 | 1023.7 |
| 20260510201512 | 21 | 144 | 4.8 | 14.5 | 0.00 | 0.00 | 0.00 | 22 | 1023.8 |
| 20260510201026 | 22 | 41 | 3.2 | 14.5 | 0.00 | 0.00 | 0.00 | 21 | 1023.7 |
| 20260510200520 | 22 | 234 | 6.4 | 12.9 | 0.00 | 0.00 | 0.00 | 21 | 1023.9 |
| 20260510200015 | 21 | 80 | 3.2 | 16.1 | 0.00 | 0.00 | 0.00 | 19 | 1023.8 |
| 20260510195509 | 21 | 79 | 6.4 | 16.1 | 0.00 | 0.00 | 0.00 | 19 | 1023.7 |
| 20260510195022 | 21 | 146 | 4.8 | 14.5 | 0.00 | 0.00 | 0.00 | 20 | 1023.7 |
| 20260510194516 | 21 | 75 | 4.8 | 14.5 | 0.00 | 0.00 | 0.00 | 21 | 1023.8 |
| 20260510194049 | 21 | 26 | 3.2 | 14.5 | 0.00 | 0.00 | 0.00 | 21 | 1023.8 |
| 20260510193527 | 21 | 161 | 3.2 | 11.3 | 0.00 | 0.00 | 0.00 | 21 | 1023.9 |
| 20260510193022 | 21 | 60 | 4.8 | 11.3 | 0.00 | 0.00 | 0.00 | 20 | 1023.8 |
| 20260510192515 | 21 | 176 | 4.8 | 14.5 | 0.00 | 0.00 | 0.00 | 22 | 1023.8 |
| 20260510192029 | 22 | 49 | 3.2 | 14.5 | 0.00 | 0.00 | 0.00 | 20 | 1023.8 |
| 20260510191544 | 22 | 49 | 3.2 | 9.7 | 0.00 | 0.00 | 0.00 | 20 | 1024.0 |
| 20260510191016 | 22 | 260 | 3.2 | 9.7 | 0.00 | 0.00 | 0.00 | 21 | 1024.1 |
| 20260510190528 | 22 | 85 | 1.6 | 11.3 | 0.00 | 0.00 | 0.00 | 22 | 1024.0 |
| 20260510190042 | 22 | 236 | 4.8 | 11.3 | 0.00 | 0.00 | 0.00 | 22 | 1024.1 |
| 20260510185514 | 21 | 238 | 4.8 | 14.5 | 0.00 | 0.00 | 0.00 | 24 | 1024.1 |
| 20260510185025 | 21 | 140 | 4.8 | 14.5 | 0.00 | 0.00 | 0.00 | 23 | 1024.2 |
| 20260510184523 | 20 | 167 | 4.8 | 8.0 | 0.00 | 0.00 | 0.00 | 24 | 1024.3 |
| 20260510184017 | 20 | 10 | 3.2 | 11.3 | 0.00 | 0.00 | 0.00 | 23 | 1024.2 |
| 20260510183510 | 20 | 57 | 3.2 | 9.7 | 0.00 | 0.00 | 0.00 | 23 | 1024.2 |
| 20260510183023 | 20 | 52 | 1.6 | 8.0 | 0.00 | 0.00 | 0.00 | 22 | 1024.3 |
| 20260510182518 | 20 | 224 | 1.6 | 8.0 | 0.00 | 0.00 | 0.00 | 23 | 1024.4 |
| 20260510182011 | 20 | 336 | 1.6 | 6.4 | 0.00 | 0.00 | 0.00 | 23 | 1024.4 |
| 20260510181525 | 20 | 338 | 1.6 | 6.4 | 0.00 | 0.00 | 0.00 | 23 | 1024.4 |
| 20260510181019 | 20 | 256 | 3.2 | 8.0 | 0.00 | 0.00 | 0.00 | 23 | 1024.4 |
| 20260510180517 | 20 | 233 | 1.6 | 8.0 | 0.00 | 0.00 | 0.00 | 22 | 1024.4 |
| 20260510180011 | 21 | 315 | 3.2 | 12.9 | 0.00 | 0.00 | 0.00 | 22 | 1024.4 |
| 20260510175546 | 21 | 125 | 4.8 | 12.9 | 0.00 | 0.00 | 0.00 | 22 | 1024.4 |
| 20260510175019 | 20 | 319 | 3.2 | 8.0 | 0.00 | 0.00 | 0.00 | 22 | 1024.4 |
| 20260510174513 | 21 | 134 | 4.8 | 12.9 | 0.00 | 0.00 | 0.00 | 22 | 1024.5 |
| 20260510174027 | 21 | 153 | 4.8 | 14.5 | 0.00 | 0.00 | 0.00 | 22 | 1024.5 |
| 20260510173522 | 21 | 162 | 3.2 | 14.5 | 0.00 | 0.00 | 0.00 | 23 | 1024.4 |
| 20260510173017 | 21 | 265 | 3.2 | 6.4 | 0.00 | 0.00 | 0.00 | 23 | 1024.5 |
| 20260510172531 | 21 | 310 | 1.6 | 8.0 | 0.00 | 0.00 | 0.00 | 23 | 1024.6 |
| 20260510172027 | 20 | 61 | 1.6 | 8.0 | 0.00 | 0.00 | 0.00 | 23 | 1024.6 |
| 20260510171522 | 20 | 205 | 4.8 | 12.9 | 0.00 | 0.00 | 0.00 | 25 | 1024.5 |
| 20260510171036 | 20 | 159 | 6.4 | 14.5 | 0.00 | 0.00 | 0.00 | 24 | 1024.7 |
| 20260510170549 | 20 | 117 | 6.4 | 16.1 | 0.00 | 0.00 | 0.00 | 25 | 1024.6 |
| 20260510170021 | 20 | 130 | 9.7 | 16.1 | 0.00 | 0.00 | 0.00 | 25 | 1024.6 |
| 20260510165515 | 20 | 47 | 6.4 | 14.5 | 0.00 | 0.00 | 0.00 | 27 | 1024.6 |
| 20260510165029 | 20 | 136 | 4.8 | 9.7 | 0.00 | 0.00 | 0.00 | 26 | 1024.7 |
| 20260510164523 | 20 | 155 | 3.2 | 14.5 | 0.00 | 0.00 | 0.00 | 27 | 1024.7 |
| 20260510164016 | 19 | 175 | 6.4 | 14.5 | 0.00 | 0.00 | 0.00 | 27 | 1024.8 |
| 20260510163514 | 19 | 143 | 3.2 | 16.1 | 0.00 | 0.00 | 0.00 | 28 | 1024.7 |
| 20260510163028 | 19 | 61 | 3.2 | 16.1 | 0.00 | 0.00 | 0.00 | 28 | 1024.7 |
| 20260510162520 | 19 | 106 | 4.8 | 14.5 | 0.00 | 0.00 | 0.00 | 27 | 1024.7 |
| 20260510162015 | 18 | 88 | 3.2 | 11.3 | 0.00 | 0.00 | 0.00 | 28 | 1024.7 |
| 20260510161509 | 18 | 105 | 3.2 | 14.5 | 0.00 | 0.00 | 0.00 | 29 | 1024.6 |
| 20260510161023 | 18 | 130 | 6.4 | 14.5 | 0.00 | 0.00 | 0.00 | 28 | 1024.7 |
| 20260510160518 | 18 | 133 | 3.2 | 11.3 | 0.00 | 0.00 | 0.00 | 29 | 1024.6 |
| 20260510160012 | 18 | 251 | 3.2 | 11.3 | 0.00 | 0.00 | 0.00 | 28 | 1024.7 |
| 20260510155510 | 18 | 173 | 4.8 | 9.7 | 0.00 | 0.00 | 0.00 | 28 | 1024.7 |
| 20260510155023 | 18 | 248 | 4.8 | 9.7 | 0.00 | 0.00 | 0.00 | 29 | 1024.7 |
| 20260510154517 | 18 | 9 | 3.2 | 12.9 | 0.00 | 0.00 | 0.00 | 29 | 1024.8 |
| 20260510154032 | 18 | 86 | 3.2 | 8.0 | 0.00 | 0.00 | 0.00 | 29 | 1024.8 |
| 20260510153526 | 18 | 296 | 3.2 | 6.4 | 0.00 | 0.00 | 0.00 | 29 | 1024.7 |
| 20260510153019 | 18 | 234 | 1.6 | 9.7 | 0.00 | 0.00 | 0.00 | 29 | 1024.8 |
| 20260510152513 | 18 | 58 | 1.6 | 6.4 | 0.00 | 0.00 | 0.00 | 29 | 1024.8 |
| 20260510152025 | 17 | 95 | 3.2 | 9.7 | 0.00 | 0.00 | 0.00 | 29 | 1024.8 |
| 20260510151539 | 17 | 96 | 3.2 | 16.1 | 0.00 | 0.00 | 0.00 | 29 | 1024.7 |
| 20260510151017 | 18 | 143 | 6.4 | 16.1 | 0.00 | 0.00 | 0.00 | 28 | 1024.8 |
| 20260510150511 | 18 | 148 | 4.8 | 14.5 | 0.00 | 0.00 | 0.00 | 27 | 1024.7 |
| 20260510150025 | 18 | 161 | 4.8 | 11.3 | 0.00 | 0.00 | 0.00 | 28 | 1024.7 |
| 20260510145519 | 17 | 117 | 4.8 | 11.3 | 0.00 | 0.00 | 0.00 | 28 | 1024.6 |
| 20260510145013 | 17 | 73 | 4.8 | 8.0 | 0.00 | 0.00 | 0.00 | 29 | 1024.5 |
| 20260510144527 | 17 | 156 | 3.2 | 11.3 | 0.00 | 0.00 | 0.00 | 28 | 1024.4 |
| 20260510144021 | 17 | 211 | 3.2 | 11.3 | 0.00 | 0.00 | 0.00 | 29 | 1024.2 |
| 20260510143518 | 16 | 296 | 1.6 | 9.7 | 0.00 | 0.00 | 0.00 | 30 | 1024.1 |
| 20260510143013 | 16 | 122 | 3.2 | 9.7 | 0.00 | 0.00 | 0.00 | 30 | 1024.1 |
| 20260510142527 | 16 | 158 | 1.6 | 6.4 | 0.00 | 0.00 | 0.00 | 30 | 1024.1 |
| 20260510142040 | 15 | 355 | 3.2 | 9.7 | 0.00 | 0.00 | 0.00 | 31 | 1024.0 |
| 20260510141512 | 15 | 96 | 3.2 | 9.7 | 0.00 | 0.00 | 0.00 | 32 | 1024.0 |
| 20260510141026 | 14 | 261 | 1.6 | 6.4 | 0.00 | 0.00 | 0.00 | 32 | 1024.0 |
| 20260510140519 | 13 | 306 | 3.2 | 4.8 | 0.00 | 0.00 | 0.00 | 34 | 1024.0 |
| 20260510140012 | 12 | 140 | 1.6 | 4.8 | 0.00 | 0.00 | 0.00 | 39 | 1024.0 |
| 20260510135510 | 11 | 146 | 0.0 | 0.0 | 0.00 | 0.00 | 0.00 | 40 | 1023.9 |
| 20260510135023 | 11 | 200 | 0.0 | 0.0 | 0.00 | 0.00 | 0.00 | 46 | 1023.8 |
| 20260510134516 | 10 | 200 | 0.0 | 0.0 | 0.00 | 0.00 | 0.00 | 45 | 1023.7 |
| 20260510134011 | 10 | 200 | 0.0 | 0.0 | 0.00 | 0.00 | 0.00 | 46 | 1023.7 |
| 20260510133524 | 10 | 200 | 0.0 | 0.0 | 0.00 | 0.00 | 0.00 | 46 | 1023.7 |
| 20260510133019 | 10 | 200 | 0.0 | 0.0 | 0.00 | 0.00 | 0.00 | 46 | 1023.6 |
| 20260510132512 | 9 | 200 | 0.0 | 0.0 | 0.00 | 0.00 | 0.00 | 44 | 1023.6 |
| 20260510132026 | 9 | 200 | 0.0 | 0.0 | 0.00 | 0.00 | 0.00 | 43 | 1023.6 |
| 20260510131520 | 9 | 200 | 0.0 | 0.0 | 0.00 | 0.00 | 0.00 | 44 | 1023.4 |
| 20260510131018 | 9 | 200 | 0.0 | 0.0 | 0.00 | 0.00 | 0.00 | 43 | 1023.4 |
| 20260510130531 | 9 | 200 | 0.0 | 0.0 | 0.00 | 0.00 | 0.00 | 42 | 1023.3 |
| 20260510130045 | 9 | 200 | 0.0 | 0.0 | 0.00 | 0.00 | 0.00 | 41 | 1023.2 |
| 20260510125518 | 9 | 200 | 0.0 | 0.0 | 0.00 | 0.00 | 0.00 | 41 | 1023.2 |
| 20260510125032 | 9 | 200 | 0.0 | 0.0 | 0.00 | 0.00 | 0.00 | 41 | 1023.1 |
| 20260510124523 | 9 | 200 | 0.0 | 0.0 | 0.00 | 0.00 | 0.00 | 40 | 1023.0 |
| 20260510124018 | 10 | 200 | 0.0 | 0.0 | 0.00 | 0.00 | 0.00 | 40 | 1023.1 |
| 20260510123511 | 10 | 200 | 0.0 | 0.0 | 0.00 | 0.00 | 0.00 | 39 | 1023.1 |
| 20260510123024 | 10 | 200 | 0.0 | 0.0 | 0.00 | 0.00 | 0.00 | 39 | 1023.1 |
| 20260510122518 | 10 | 200 | 0.0 | 0.0 | 0.00 | 0.00 | 0.00 | 37 | 1023.1 |
| 20260510122015 | 10 | 200 | 0.0 | 0.0 | 0.00 | 0.00 | 0.00 | 38 | 1022.9 |
| 20260510121528 | 10 | 200 | 0.0 | 0.0 | 0.00 | 0.00 | 0.00 | 38 | 1022.9 |
| 20260510121023 | 10 | 200 | 0.0 | 0.0 | 0.00 | 0.00 | 0.00 | 37 | 1022.9 |
| 20260510120516 | 11 | 200 | 0.0 | 0.0 | 0.00 | 0.00 | 0.00 | 36 | 1022.9 |
| 20260510120010 | 11 | 200 | 0.0 | 0.0 | 0.00 | 0.00 | 0.00 | 36 | 1022.8 |
| 20260510115545 | 11 | 200 | 0.0 | 0.0 | 0.00 | 0.00 | 0.00 | 36 | 1022.8 |
| 20260510115017 | 11 | 200 | 0.0 | 0.0 | 0.00 | 0.00 | 0.00 | 34 | 1022.8 |
| 20260510114511 | 11 | 143 | 0.0 | 0.0 | 0.00 | 0.00 | 0.00 | 34 | 1022.8 |
| 20260510114028 | 11 | 143 | 0.0 | 0.0 | 0.00 | 0.00 | 0.00 | 34 | 1022.7 |
| 20260510113522 | 11 | 143 | 0.0 | 0.0 | 0.00 | 0.00 | 0.00 | 34 | 1022.6 |
| 20260510113014 | 11 | 143 | 0.0 | 0.0 | 0.00 | 0.00 | 0.00 | 35 | 1022.6 |
| 20260510112548 | 12 | 143 | 0.0 | 0.0 | 0.00 | 0.00 | 0.00 | 33 | 1022.5 |
| 20260510112020 | 12 | 143 | 0.0 | 0.0 | 0.00 | 0.00 | 0.00 | 33 | 1022.4 |
| 20260510111514 | 12 | 143 | 0.0 | 0.0 | 0.00 | 0.00 | 0.00 | 31 | 1022.3 |
| 20260510111047 | 12 | 143 | 0.0 | 0.0 | 0.00 | 0.00 | 0.00 | 32 | 1022.2 |
| 20260510110520 | 12 | 143 | 0.0 | 0.0 | 0.00 | 0.00 | 0.00 | 33 | 1022.2 |
| 20260510110013 | 13 | 143 | 0.0 | 0.0 | 0.00 | 0.00 | 0.00 | 30 | 1022.0 |
| 20260510105527 | 13 | 143 | 0.0 | 0.0 | 0.00 | 0.00 | 0.00 | 31 | 1022.0 |
| 20260510105024 | 13 | 143 | 0.0 | 0.0 | 0.00 | 0.00 | 0.00 | 31 | 1022.0 |
| 20260510104517 | 13 | 143 | 0.0 | 1.6 | 0.00 | 0.00 | 0.00 | 28 | 1021.8 |
| 20260510104012 | 14 | 143 | 0.0 | 3.2 | 0.00 | 0.00 | 0.00 | 28 | 1021.8 |
| 20260510103526 | 15 | 143 | 0.0 | 0.0 | 0.00 | 0.00 | 0.00 | 27 | 1021.7 |
| 20260510103020 | 15 | 143 | 0.0 | 0.0 | 0.00 | 0.00 | 0.00 | 27 | 1021.6 |
| 20260510102513 | 15 | 143 | 0.0 | 3.2 | 0.00 | 0.00 | 0.00 | 26 | 1021.5 |
| 20260510102029 | 15 | 143 | 1.6 | 3.2 | 0.00 | 0.00 | 0.00 | 25 | 1021.5 |
| 20260510101522 | 15 | 143 | 0.0 | 6.4 | 0.00 | 0.00 | 0.00 | 26 | 1021.4 |
| 20260510101021 | 15 | 143 | 0.0 | 6.4 | 0.00 | 0.00 | 0.00 | 25 | 1021.4 |
| 20260510100514 | 16 | 71 | 1.6 | 4.8 | 0.00 | 0.00 | 0.00 | 23 | 1021.4 |
| 20260510100028 | 16 | 47 | 0.0 | 4.8 | 0.00 | 0.00 | 0.00 | 24 | 1021.3 |
| 20260510095523 | 16 | 47 | 1.6 | 4.8 | 0.00 | 0.00 | 0.00 | 22 | 1021.3 |
| 20260510095016 | 16 | 44 | 1.6 | 6.4 | 0.00 | 0.00 | 0.00 | 22 | 1021.3 |
| 20260510094528 | 16 | 32 | 1.6 | 6.4 | 0.00 | 0.00 | 0.00 | 22 | 1021.3 |
| 20260510094022 | 16 | 309 | 0.0 | 8.0 | 0.00 | 0.00 | 0.00 | 22 | 1021.1 |
| 20260510093519 | 16 | 33 | 0.0 | 8.0 | 0.00 | 0.00 | 0.00 | 22 | 1020.9 |
| 20260510093013 | 16 | 38 | 1.6 | 9.7 | 0.00 | 0.00 | 0.00 | 22 | 1020.8 |
| 20260510092526 | 17 | 341 | 3.2 | 9.7 | 0.00 | 0.00 | 0.00 | 21 | 1020.7 |
| 20260510092020 | 17 | 55 | 3.2 | 11.3 | 0.00 | 0.00 | 0.00 | 21 | 1020.5 |
| 20260510091513 | 17 | 38 | 3.2 | 14.5 | 0.00 | 0.00 | 0.00 | 21 | 1020.5 |
| 20260510091048 | 17 | 360 | 3.2 | 14.5 | 0.00 | 0.00 | 0.00 | 21 | 1020.4 |
| 20260510090519 | 17 | 46 | 3.2 | 14.5 | 0.00 | 0.00 | 0.00 | 21 | 1020.7 |
| 20260510090014 | 17 | 53 | 6.4 | 14.5 | 0.00 | 0.00 | 0.00 | 22 | 1020.6 |
| 20260510085526 | 17 | 342 | 4.8 | 14.5 | 0.00 | 0.00 | 0.00 | 22 | 1020.6 |
| 20260510085024 | 17 | 155 | 1.6 | 4.8 | 0.00 | 0.00 | 0.00 | 22 | 1020.5 |
| 20260510084518 | 17 | 14 | 0.0 | 6.4 | 0.00 | 0.00 | 0.00 | 21 | 1020.6 |
| 20260510084013 | 17 | 355 | 3.2 | 8.0 | 0.00 | 0.00 | 0.00 | 21 | 1020.5 |
| 20260510083526 | 16 | 5 | 4.8 | 8.0 | 0.00 | 0.00 | 0.00 | 22 | 1020.4 |
| 20260510083040 | 16 | 308 | 1.6 | 8.0 | 0.00 | 0.00 | 0.00 | 22 | 1020.4 |
| 20260510082513 | 16 | 276 | 1.6 | 9.7 | 0.00 | 0.00 | 0.00 | 22 | 1020.1 |
| 20260510082047 | 16 | 297 | 4.8 | 9.7 | 0.00 | 0.00 | 0.00 | 22 | 1019.8 |
| 20260510081519 | 16 | 360 | 3.2 | 9.7 | 0.00 | 0.00 | 0.00 | 23 | 1019.9 |
| 20260510081013 | 16 | 49 | 3.2 | 9.7 | 0.00 | 0.00 | 0.00 | 23 | 1020.3 |
| 20260510080511 | 16 | 5 | 3.2 | 6.4 | 0.00 | 0.00 | 0.00 | 23 | 1020.3 |
| 20260510080025 | 16 | 11 | 3.2 | 6.4 | 0.00 | 0.00 | 0.00 | 23 | 1020.3 |
| 20260510075519 | 16 | 355 | 4.8 | 8.0 | 0.00 | 0.00 | 0.00 | 23 | 1020.2 |
| 20260510075012 | 16 | 19 | 3.2 | 16.1 | 0.00 | 0.00 | 0.00 | 23 | 1020.3 |
| 20260510074525 | 16 | 355 | 4.8 | 16.1 | 0.00 | 0.00 | 0.00 | 22 | 1020.3 |
| 20260510074019 | 17 | 345 | 3.2 | 8.0 | 0.00 | 0.00 | 0.00 | 22 | 1020.3 |
| 20260510073513 | 17 | 22 | 4.8 | 8.0 | 0.00 | 0.00 | 0.00 | 22 | 1020.3 |
| 20260510073047 | 17 | 37 | 1.6 | 6.4 | 0.00 | 0.00 | 0.00 | 22 | 1020.4 |
| 20260510072540 | 17 | 38 | 3.2 | 9.7 | 0.00 | 0.00 | 0.00 | 21 | 1020.4 |
| 20260510072017 | 17 | 5 | 3.2 | 9.7 | 0.00 | 0.00 | 0.00 | 21 | 1020.5 |
| 20260510071532 | 17 | 59 | 3.2 | 6.4 | 0.00 | 0.00 | 0.00 | 20 | 1020.5 |
| 20260510071024 | 17 | 5 | 3.2 | 6.4 | 0.00 | 0.00 | 0.00 | 20 | 1020.4 |
| 20260510070539 | 17 | 15 | 1.6 | 6.4 | 0.00 | 0.00 | 0.00 | 21 | 1020.4 |
| 20260510070011 | 17 | 15 | 3.2 | 19.3 | 0.00 | 0.00 | 0.00 | 21 | 1020.3 |
| 20260510065524 | 17 | 355 | 4.8 | 19.3 | 0.00 | 0.00 | 0.00 | 21 | 1020.3 |
| 20260510065017 | 17 | 12 | 3.2 | 16.1 | 0.00 | 0.00 | 0.00 | 22 | 1020.4 |
| 20260510064531 | 17 | 28 | 6.4 | 16.1 | 0.00 | 0.00 | 0.00 | 22 | 1020.3 |
| 20260510064023 | 17 | 41 | 4.8 | 12.9 | 0.00 | 0.00 | 0.00 | 22 | 1020.4 |
| 20260510063517 | 17 | 5 | 4.8 | 16.1 | 0.00 | 0.00 | 0.00 | 21 | 1020.3 |
| 20260510063035 | 18 | 5 | 6.4 | 22.5 | 0.00 | 0.00 | 0.00 | 21 | 1020.3 |
| 20260510062547 | 18 | 35 | 8.0 | 19.3 | 0.00 | 0.00 | 0.00 | 21 | 1020.4 |
| 20260510062020 | 18 | 14 | 4.8 | 14.5 | 0.00 | 0.00 | 0.00 | 20 | 1020.3 |
| 20260510061511 | 18 | 26 | 6.4 | 14.5 | 0.00 | 0.00 | 0.00 | 20 | 1020.4 |
| 20260510061025 | 18 | 5 | 4.8 | 14.5 | 0.00 | 0.00 | 0.00 | 20 | 1020.3 |
| 20260510060540 | 18 | 47 | 6.4 | 19.3 | 0.00 | 0.00 | 0.00 | 21 | 1020.3 |
| 20260510060012 | 18 | 53 | 6.4 | 19.3 | 0.00 | 0.00 | 0.00 | 21 | 1020.3 |
| 20260510055525 | 17 | 302 | 4.8 | 8.0 | 0.00 | 0.00 | 0.00 | 21 | 1020.3 |
| 20260510055018 | 18 | 333 | 1.6 | 4.8 | 0.00 | 0.00 | 0.00 | 21 | 1020.4 |
| 20260510054516 | 18 | 15 | 3.2 | 6.4 | 0.00 | 0.00 | 0.00 | 21 | 1020.3 |
| 20260510054029 | 17 | 327 | 3.2 | 8.0 | 0.00 | 0.00 | 0.00 | 21 | 1020.3 |
| 20260510053522 | 17 | 318 | 3.2 | 8.0 | 0.00 | 0.00 | 0.00 | 21 | 1020.2 |
| 20260510053016 | 17 | 30 | 3.2 | 6.4 | 0.00 | 0.00 | 0.00 | 21 | 1020.2 |
| 20260510052530 | 18 | 35 | 3.2 | 6.4 | 0.00 | 0.00 | 0.00 | 21 | 1020.3 |
| 20260510052023 | 17 | 55 | 3.2 | 14.5 | 0.00 | 0.00 | 0.00 | 21 | 1020.2 |
| 20260510051517 | 17 | 5 | 6.4 | 14.5 | 0.00 | 0.00 | 0.00 | 22 | 1020.3 |
| 20260510051011 | 17 | 24 | 3.2 | 4.8 | 0.00 | 0.00 | 0.00 | 23 | 1020.3 |
| 20260510050525 | 17 | 337 | 3.2 | 6.4 | 0.00 | 0.00 | 0.00 | 22 | 1020.3 |
| 20260510050022 | 17 | 11 | 3.2 | 6.4 | 0.00 | 0.00 | 0.00 | 23 | 1020.3 |
| 20260510045516 | 16 | 10 | 1.6 | 8.0 | 0.00 | 0.00 | 0.00 | 24 | 1020.3 |
| 20260510045010 | 15 | 30 | 3.2 | 8.0 | 0.00 | 0.00 | 0.00 | 24 | 1020.3 |
| 20260510044524 | 15 | 55 | 0.0 | 1.6 | 0.00 | 0.00 | 0.00 | 26 | 1020.3 |
| 20260510044017 | 15 | 240 | 0.0 | 0.0 | 0.00 | 0.00 | 0.00 | 27 | 1020.3 |
| 20260510043512 | 15 | 240 | 0.0 | 0.0 | 0.00 | 0.00 | 0.00 | 25 | 1020.2 |
| 20260510043045 | 15 | 240 | 0.0 | 0.0 | 0.00 | 0.00 | 0.00 | 25 | 1020.3 |
| 20260510042537 | 15 | 240 | 0.0 | 0.0 | 0.00 | 0.00 | 0.00 | 26 | 1020.2 |
| 20260510042010 | 16 | 240 | 0.0 | 0.0 | 0.00 | 0.00 | 0.00 | 25 | 1020.1 |
| 20260510041528 | 16 | 240 | 0.0 | 0.0 | 0.00 | 0.00 | 0.00 | 24 | 1020.1 |
| 20260510041041 | 16 | 240 | 0.0 | 0.0 | 0.00 | 0.00 | 0.00 | 23 | 1019.9 |
| 20260510040534 | 16 | 239 | 0.0 | 0.0 | 0.00 | 0.00 | 0.00 | 22 | 1019.9 |
| 20260510040047 | 16 | 239 | 0.0 | 0.0 | 0.00 | 0.00 | 0.00 | 21 | 1019.9 |
| 20260510035520 | 16 | 266 | 0.0 | 0.0 | 0.00 | 0.00 | 0.00 | 20 | 1019.9 |
| 20260510035013 | 16 | 284 | 0.0 | 0.0 | 0.00 | 0.00 | 0.00 | 21 | 1019.8 |
| 20260510034528 | 17 | 360 | 0.0 | 3.2 | 0.00 | 0.00 | 0.00 | 20 | 1019.8 |
| 20260510034022 | 17 | 360 | 0.0 | 3.2 | 0.00 | 0.00 | 0.00 | 20 | 1019.8 |
| 20260510033535 | 17 | 360 | 1.6 | 4.8 | 0.00 | 0.00 | 0.00 | 19 | 1019.8 |
| 20260510033025 | 17 | 342 | 1.6 | 4.8 | 0.00 | 0.00 | 0.00 | 19 | 1019.7 |
| 20260510032517 | 17 | 329 | 0.0 | 0.0 | 0.00 | 0.00 | 0.00 | 18 | 1019.7 |
| 20260510032014 | 17 | 329 | 0.0 | 0.0 | 0.00 | 0.00 | 0.00 | 17 | 1019.6 |
| 20260510031549 | 18 | 329 | 0.0 | 3.2 | 0.00 | 0.00 | 0.00 | 16 | 1019.5 |
| 20260510031021 | 18 | 329 | 1.6 | 3.2 | 0.00 | 0.00 | 0.00 | 17 | 1019.5 |
| 20260510030514 | 18 | 329 | 1.6 | 3.2 | 0.00 | 0.00 | 0.00 | 16 | 1019.4 |
| 20260510030028 | 18 | 329 | 1.6 | 3.2 | 0.00 | 0.00 | 0.00 | 15 | 1019.3 |
| 20260510025522 | 18 | 306 | 1.6 | 3.2 | 0.00 | 0.00 | 0.00 | 15 | 1019.2 |
| 20260510025015 | 19 | 5 | 0.0 | 3.2 | 0.00 | 0.00 | 0.00 | 15 | 1019.1 |
| 20260510024529 | 19 | 5 | 0.0 | 4.8 | 0.00 | 0.00 | 0.00 | 15 | 1018.9 |
| 20260510024043 | 20 | 239 | 1.6 | 4.8 | 0.00 | 0.00 | 0.00 | 14 | 1018.8 |
| 20260510023519 | 20 | 46 | 1.6 | 4.8 | 0.00 | 0.00 | 0.00 | 13 | 1018.7 |
| 20260510023013 | 20 | 46 | 3.2 | 6.4 | 0.00 | 0.00 | 0.00 | 14 | 1018.7 |
| 20260510022527 | 20 | 33 | 3.2 | 6.4 | 0.00 | 0.00 | 0.00 | 13 | 1018.6 |
| 20260510022018 | 20 | 360 | 3.2 | 19.3 | 0.00 | 0.00 | 0.00 | 14 | 1018.4 |
| 20260510021511 | 20 | 35 | 3.2 | 19.3 | 0.00 | 0.00 | 0.00 | 14 | 1018.3 |
| 20260510021023 | 20 | 13 | 4.8 | 8.0 | 0.00 | 0.00 | 0.00 | 14 | 1018.3 |
| 20260510020516 | 20 | 279 | 1.6 | 4.8 | 0.00 | 0.00 | 0.00 | 15 | 1018.2 |
| 20260510020012 | 20 | 5 | 0.0 | 3.2 | 0.00 | 0.00 | 0.00 | 15 | 1018.2 |
| 20260510015522 | 21 | 5 | 1.6 | 3.2 | 0.00 | 0.00 | 0.00 | 14 | 1018.2 |
| 20260510015022 | 21 | 5 | 1.6 | 8.0 | 0.00 | 0.00 | 0.00 | 14 | 1018.1 |
| 20260510014514 | 21 | 216 | 3.2 | 8.0 | 0.00 | 0.00 | 0.00 | 13 | 1018.0 |
| 20260510014029 | 21 | 15 | 3.2 | 8.0 | 0.00 | 0.00 | 0.00 | 13 | 1018.0 |
| 20260510013522 | 21 | 39 | 3.2 | 8.0 | 0.00 | 0.00 | 0.00 | 13 | 1018.0 |
| 20260510013016 | 21 | 19 | 3.2 | 4.8 | 0.00 | 0.00 | 0.00 | 12 | 1017.9 |
| 20260510012550 | 21 | 346 | 3.2 | 4.8 | 0.00 | 0.00 | 0.00 | 12 | 1017.9 |
| 20260510012023 | 22 | 221 | 1.6 | 4.8 | 0.00 | 0.00 | 0.00 | 13 | 1017.8 |
| 20260510011517 | 22 | 221 | 3.2 | 4.8 | 0.00 | 0.00 | 0.00 | 13 | 1017.7 |
| 20260510011009 | 22 | 321 | 1.6 | 6.4 | 0.00 | 0.00 | 0.00 | 12 | 1017.6 |
| 20260510010529 | 22 | 40 | 3.2 | 8.0 | 0.00 | 0.00 | 0.00 | 12 | 1017.6 |
| 20260510010039 | 22 | 327 | 4.8 | 9.7 | 0.00 | 0.00 | 0.00 | 12 | 1017.6 |
| 20260510005511 | 22 | 269 | 1.6 | 17.7 | 0.00 | 0.00 | 0.00 | 12 | 1017.6 |
| 20260510005045 | 22 | 66 | 4.8 | 17.7 | 0.00 | 0.00 | 0.00 | 12 | 1017.6 |
| 20260510004517 | 22 | 36 | 3.2 | 8.0 | 0.00 | 0.00 | 0.00 | 12 | 1017.5 |
| 20260510004011 | 22 | 271 | 3.2 | 8.0 | 0.00 | 0.00 | 0.00 | 12 | 1017.4 |
| 20260510003525 | 22 | 275 | 1.6 | 9.7 | 0.00 | 0.00 | 0.00 | 12 | 1017.6 |
| 20260510003018 | 23 | 57 | 3.2 | 20.9 | 0.00 | 0.00 | 0.00 | 12 | 1017.4 |
| 20260510002511 | 23 | 136 | 1.6 | 20.9 | 0.00 | 0.00 | 0.00 | 12 | 1017.5 |
| 20260510002009 | 23 | 48 | 4.8 | 17.7 | 0.00 | 0.00 | 0.00 | 12 | 1017.3 |
| 20260510001525 | 23 | 219 | 6.4 | 17.7 | 0.00 | 0.00 | 0.00 | 12 | 1017.3 |
| 20260510001039 | 23 | 26 | 3.2 | 12.9 | 0.00 | 0.00 | 0.00 | 11 | 1017.4 |
| 20260510000532 | 23 | 343 | 6.4 | 19.3 | 0.00 | 0.00 | 0.00 | 11 | 1017.6 |
| 20260510000043 | 24 | 355 | 8.0 | 19.3 | 0.00 | 0.00 | 0.00 | 11 | 1017.6 |
| 20260509235515 | 24 | 51 | 3.2 | 11.3 | 0.00 | 0.00 | 0.00 | 11 | 1017.6 |
| 20260509235028 | 24 | 233 | 4.8 | 9.7 | 0.00 | 0.00 | 0.00 | 11 | 1017.6 |